Lid_Strength_Index
0 -0 -1 -0 -0 -1 -1 -1 -1 -1 -1 -1 -1 -1 -1 -1 -1 1 4 1 0 -1 -1 1 2 2 3 5 4 5 12 14 13 12 10 7 8 7 6 7 6 6 6 4 2
0 -0 -0 -0 -0 -1 -1 -1 -1 -1 -1 -1 -1 -1 -1 -1 1 3 -1 -2 -1 -2 1 3 5 4 6 7 6 9 13 12 9 10 10 8 7 7 8 8 8 7 4 3 3
0 -0 -0 -0 -1 -1 -1 -1 -1 -1 -1 -1 -1 -1 -2 -1 4 4 -2 -2 -1 -1 1 2 3 5 7 7 8 9 12 9 8 8 8 7 8 8 8 10 8 8 6 4 4
0 -0 -0 -0 -1 -2 -1 -1 -1 -1 -1 -2 -1 -2 -2 1 11 2 -2 -2 -2 -1 1 3 5 7 9 10 7 11 8 8 7 8 9 8 6 8 9 9 5 5 4 4 5
0 0 -0 -1 -1 -1 -1 -1 -1 -2 -2 -2 -2 -2 1 5 6 -0 -1 -1 -0 1 3 4 6 7 10 9 8 10 9 7 6 7 9 7 7 8 9 6 5 4 4 5 5
0 0 -0 -1 -1 -1 -1 -1 -1 -2 -2 -2 -2 -1 3 8 1 -0 -0 0 1 2 4 4 5 5 7 8 9 8 8 7 7 8 9 8 8 8 7 5 6 5 5 5 5
1 0 0 -0 -1 -1 -1 -1 -2 -2 -2 -2 -2 1 4 5 0 -1 -0 1 1 2 4 3 3 6 6 8 6 7 10 9 8 8 8 7 10 10 7 6 7 6 5 5 4
1 1 0 -0 -1 -1 -1 -1 -2 -2 -2 -2 -2 3 7 1 1 1 0 1 0 1 2 2 2 5 7 6 7 10 10 13 9 8 8 9 13 11 7 7 8 7 6 5 5
1 1 1 -0 -0 -1 -1 -1 -2 -1 -2 -2 3 4 7 0 3 3 2 3 2 2 2 2 3 7 7 10 12 11 15 13 11 8 10 11 13 11 7 7 8 7 6 6 5
2 1 1 0 -0 -0 -0 -1 -1 -0 1 2 3 7 4 5 3 2 1 2 4 4 5 6 7 9 10 12 17 15 14 13 13 11 11 11 12 10 8 7 8 7 7 6 6
2 2 1 1 0 -0 2 4 6 7 5 8 7 6 5 3 2 3 2 3 4 6 10 8 11 14 11 10 10 11 12 13 12 11 11 11 12 11 9 8 8 8 7 7 6
2 2 1 1 1 0 3 6 6 6 9 6 5 5 3 3 6 5 2 6 8 10 8 10 13 10 8 9 10 11 12 13 12 11 11 12 12 11 12 10 8 8 7 7 7
2 2 2 2 1 4 6 6 4 4 9 7 6 6 6 5 7 7 6 7 8 10 11 13 11 9 10 11 12 13 13 14 12 12 12 12 14 13 12 12 12 10 9 9 8
2 2 2 2 5 6 7 4 4 5 15 12 9 7 6 5 8 5 5 7 9 11 10 12 10 10 11 12 12 14 12 11 12 13 16 14 19 16 14 13 13 14 12 11 12
2 2 2 3 7 7 6 5 5 8 23 12 9 5 6 8 8 7 5 7 10 10 11 13 11 11 12 12 11 13 10 11 12 15 16 15 17 15 14 14 13 13 12 12 11
2 3 3 6 7 6 5 5 7 16 23 14 9 10 9 9 8 7 7 7 8 10 10 11 8 9 10 9 10 10 11 11 13 15 19 17 17 16 15 13 13 13 12 11 10
3 3 4 5 8 6 6 7 15 20 13 14 12 10 11 11 10 9 10 11 13 16 15 12 11 10 9 11 10 10 13 18 19 21 20 16 18 14 13 12 12 12 11 11 10
3 4 5 6 6 6 8 13 21 15 14 11 11 11 13 12 11 11 12 13 11 12 15 16 18 12 10 12 14 13 14 19 21 21 20 16 19 16 12 10 11 11 10 10 10
4 7 7 6 5 7 11 19 18 15 12 12 12 14 14 12 13 13 13 13 12 11 15 16 16 11 10 10 11 14 17 14 17 18 21 20 16 13 12 12 11 11 11 11 10
8 8 8 6 7 9 14 15 15 12 11 11 16 14 16 15 14 14 15 13 12 11 11 13 17 13 11 10 11 13 12 16 17 19 20 20 19 20 16 14 12 12 12 11 10
8 10 7 6 8 12 17 16 13 11 11 12 14 15 15 15 15 15 15 13 11 11 11 13 14 15 12 14 14 13 15 15 15 17 19 21 19 14 14 13 13 12 10 10 9
8 12 8 7 13 15 16 14 11 12 11 12 13 13 15 14 15 16 15 14 11 11 14 13 14 18 15 13 12 14 14 15 17 17 18 20 20 13 13 12 12 11 10 10 9
10 10 7 9 14 17 14 13 11 12 12 12 13 12 13 15 15 14 13 11 10 12 15 13 16 20 17 15 13 15 14 14 15 17 18 20 19 12 12 13 13 11 10 10 10
10 12 10 11 13 14 15 14 14 11 11 11 12 12 13 14 14 15 14 11 10 11 8 11 16 17 19 18 16 17 16 15 16 20 19 19 18 15 15 14 13 13 13 12 11
11 12 12 14 13 14 14 13 14 14 12 12 13 13 14 16 15 15 14 13 11 10 12 14 17 19 17 16 16 16 16 16 18 18 19 19 17 16 15 15 14 13 13 12 12
11 13 12 13 13 13 13 14 13 13 13 14 14 13 13 15 14 15 14 15 15 13 14 14 17 17 18 16 16 17 16 16 17 16 16 17 17 15 14 14 14 13 13 13 13
10 10 11 11 14 14 14 13 13 12 12 12 13 14 14 13 13 13 13 13 14 15 15 15 17 19 20 17 17 19 17 17 17 17 16 18 16 14 15 14 14 14 13 13 12